Regional Weather Roundup
Issued by NWS

Home | Current Version | Previous Version | Text Only | Print | Product List | Glossary On
Versions: 1 2 3 4 5 6 7 8 9 10 11 12 13 14 15 16 17 18 19 20 21 22 23 24 25 26 27 28 29 30 31 32 33 34 35 36 37 38 39 40 41 42 43 44 45 46 47 48 49 50
000
ASUS43 KDTX 130601
RWRMI
MICHIGAN HOURLY REGIONAL WEATHER ROUNDUP
NATIONAL WEATHER SERVICE DETROIT/PONTIAC MI
100 AM EST WED DEC 13 2017

NOTE: "FAIR" INDICATES FEW OR NO CLOUDS BELOW 12,000 FEET WITH NO
SIGNIFICANT WEATHER AND/OR OBSTRUCTION TO VISIBILITY.

MIZ047>049-052>055-059>063-066>070-074>076-081>083-130700-
SOUTHEAST LOWER MICHIGAN

CITY           SKY/WX    TMP DP  RH WIND       PRES   REMARKS
ADRIAN         CLOUDY    17   7  64 W6        29.89F WCI   9
6HR MIN TEMP:  14; 6HR MAX TEMP:  17;

ANN ARBOR      CLEAR     10   3  73 W6        29.85F WCI   0
BAD AXE        CLOUDY    11   4  72 NW13G18   29.82S WCI  -3
6HR MIN TEMP:  11; 6HR MAX TEMP:  13;

CARO           CLOUDY    14   7  73 NW6       29.84S WCI   5
DETROIT CITY   PTCLDY    13   6  74 W5        29.85F WCI   5
6HR MIN TEMP:  13; 6HR MAX TEMP:  16;

DETROIT        MOCLDY    16   6  65 W9        29.86F WCI   4
6HR MIN TEMP:  16; 6HR MAX TEMP:  18; 6HR PCP: TRACE;

FLINT          CLOUDY    14   7  73 W8        29.85F WCI   3
6HR MIN TEMP:  13; 6HR MAX TEMP:  15; 6HR PCP: TRACE;

GROSSE ILE     CLEAR     16   7  67 W7        29.86F WCI   6
6HR MIN TEMP:  15; 6HR MAX TEMP:  18;

HILLSDALE      CLOUDY    18  10  73 W5        29.85F WCI  11
HOWELL         CLOUDY    14   8  77 NW6       29.84F WCI   5
6HR MIN TEMP:  14; 6HR MAX TEMP:  16;


CITY           SKY/WX    TMP DP  RH WIND       PRES   REMARKS
JACKSON        CLOUDY    16   7  67 SW7       29.86F WCI   6
6HR MIN TEMP:  14; 6HR MAX TEMP:  18;

LAMBERTVILLE   CLOUDY    18   7  63 W5        29.88F WCI  11
6HR MIN TEMP:  13; 6HR MAX TEMP:  18;

LANSING        CLOUDY    16   7  67 W6        29.87F WCI   7
6HR MIN TEMP:  13; 6HR MAX TEMP:  17; 6HR PCP: TRACE;

LAPEER         CLOUDY    13   4  66 NW8       29.83S WCI   2
6HR MIN TEMP:  12; 6HR MAX TEMP:  14;

MASON          CLOUDY    18   3  52 W7        29.86S WCI   9
6HR MIN TEMP:  16; 6HR MAX TEMP:  18;

MONROE         CLEAR     12   1  60 W7        29.87F WCI   2
6HR MIN TEMP:  12; 6HR MAX TEMP:  17;

MT. CLEMENS    CLEAR     11   3  70 W7        29.82F WCI   0
6HR MIN TEMP:  11; 6HR MAX TEMP:  15;

PONTIAC        LGT SNOW  13   9  84 NW10      29.81F FOG     WCI   0
6HR MIN TEMP:  12; 6HR MAX TEMP:  14; 6HR PCP: TRACE;

PORT HOPE        N/A     16   8  71 NW17G28   29.78F WCI   0
6HR MIN TEMP:  15; 6HR MAX TEMP:  18;

PORT HURON     CLEAR     10   1  67 W8        29.82F WCI  -1
TRI CITIES     CLOUDY    15   7  70 NW3       29.87S
6HR MIN TEMP:  14; 6HR MAX TEMP:  15;

MIDLAND        CLOUDY    16   6  66 CALM      29.86S
6HR MIN TEMP:  15; 6HR MAX TEMP:  16;

TROY           MOCLDY    15   8  72 W5        29.85F WCI   7
SAGINAW HB     CLOUDY    16   7  67 W7        29.85F WCI   6
$$
MIZ043>046-050>051-056>058-064>065-071>073-077>080-130700-
SOUTHWEST LOWER MICHIGAN

CITY           SKY/WX    TMP DP  RH WIND       PRES   REMARKS
BATTLE CREEK   CLOUDY    17  12  80 SW7       29.88F WCI   8
6HR MIN TEMP:  16; 6HR MAX TEMP:  18;

BENTON HARBOR  CLOUDY    23   9  55 W12       29.90F WCI  12
6HR MIN TEMP:  23; 6HR MAX TEMP:  24; 6HR PCP: TRACE;

BIG RAPIDS     CLOUDY    15  10  80 W3        29.82F
6HR MIN TEMP:  15; 6HR MAX TEMP:  16;

COLDWATER      FLURRIES  17  14  88 SW5       29.88F WCI  10
6HR MIN TEMP:  17; 6HR MAX TEMP:  18;

FREMONT        CLOUDY    16  14  91 CALM      29.85F
6HR MIN TEMP:  16; 6HR MAX TEMP:  17;

HOLLAND        CLOUDY    16  13  88 S5        29.88F WCI   9
6HR MIN TEMP:  16; 6HR MAX TEMP:  19; 6HR PCP:  0.04;

GRAND RAPIDS   CLOUDY    18  12  77 W6        29.86F WCI  10
6HR MIN TEMP:  17; 6HR MAX TEMP:  19; 6HR PCP: TRACE;

IONIA          CLOUDY    17  10  71 SW5       29.85F WCI  10
6HR MIN TEMP:  17; 6HR MAX TEMP:  18;

KALAMAZOO      CLOUDY    17  13  84 SW5       29.88F WCI  10
6HR MIN TEMP:  17; 6HR MAX TEMP:  18; 6HR PCP: TRACE;

LUDINGTON      FLURRIES  20  11  68 CALM      29.84F
6HR MIN TEMP:  19; 6HR MAX TEMP:  20;

MARSHALL       CLOUDY    16  10  79 SW6       29.87F WCI   7
6HR MIN TEMP:  16; 6HR MAX TEMP:  17;

MOUNT PLEASANT CLOUDY    15  10  79 CALM      29.84F
6HR MIN TEMP:  15; 6HR MAX TEMP:  17;

MUSKEGON       CLOUDY    18  13  80 SE6       29.87F WCI  10
6HR MIN TEMP:  18; 6HR MAX TEMP:  20; 6HR PCP:  0.01;

SOUTH HAVEN    CLOUDY    24  11  56 W7        29.89F WCI  16
$$
MIZ016>042-130700-
NORTHERN LOWER MICHIGAN

CITY           SKY/WX    TMP DP  RH WIND       PRES   REMARKS
ALPENA         CLOUDY    10   4  76 NW9       29.81F WCI  -3
6HR MIN TEMP:   9; 6HR MAX TEMP:  11; 6HR PCP: TRACE;

BELLAIRE       CLOUDY    15   9  77 E3        29.83F
6HR MIN TEMP:  15; 6HR MAX TEMP:  16;

CADILLAC       CLOUDY    14   9  78 W3        29.77F
CHARLEVOIX     CLOUDY    18   9  68 NW7G16    29.84F WCI   9
6HR MIN TEMP:  16; 6HR MAX TEMP:  18;

FRANKFORT      CLOUDY    20  11  67 NW5       29.83F WCI  14
GAYLORD        CLOUDY     8   1  73 CALM      29.76F
6HR MIN TEMP:   8; 6HR MAX TEMP:   9;

GRAYLING       CLOUDY    10   4  75 CALM      29.79F
6HR MIN TEMP:   7; 6HR MAX TEMP:  11;

HARBOR SPRINGS CLOUDY    11   4  72 NE5       29.81F WCI   3
HOUGHTON LAKE  CLOUDY    12   5  73 W5        29.80F WCI   4
6HR MIN TEMP:   8; 6HR MAX TEMP:  12;

MANISTEE       FLURRIES  19  11  70 E5        29.83F WCI  12
OSCODA         CLEAR      3  -4  72 W5        29.82S WCI  -7
6HR MIN TEMP:   2; 6HR MAX TEMP:  10;

PELLSTON       CLOUDY    10   4  76 CALM      29.83F
6HR MIN TEMP:  10; 6HR MAX TEMP:  12;

ROGERS CITY    FLURRIES  11   6  79 NW8       29.82F WCI  -1
TRAVERSE CITY  CLOUDY    17  12  80 SW5       29.81F WCI  10
6HR MIN TEMP:  17; 6HR MAX TEMP:  19; 6HR PCP:  0.05;

$$
MIZ007>008-015-130700-
EASTERN UPPER MICHIGAN

CITY           SKY/WX    TMP DP  RH WIND       PRES   REMARKS
KINROSS        CLOUDY    -3  -8  79 NE7       29.83F WCI -16
6HR MIN TEMP:  -4; 6HR MAX TEMP:   0;

MACKINAC ISLAN LGT SNOW   7   3  83 NE6       29.82F WCI  -3
6HR MIN TEMP:   6; 6HR MAX TEMP:  12;

NEWBERRY       CLOUDY     8   7  97 CALM      29.79F
6HR MIN TEMP:   8; 6HR MAX TEMP:   9;

S. S. MARIE    CLOUDY    -4 -12  68 NE5       29.83F WCI -15
6HR MIN TEMP:  -6; 6HR MAX TEMP:   3;

MUNISING         N/A     13   7  77 SW6       29.79F WCI   4
6HR MIN TEMP:  13; 6HR MAX TEMP:  19; 6HR PCP:  0.01;

$$
MIZ004>006-011>014-085-130700-
CENTRAL UPPER MICHIGAN

CITY           SKY/WX    TMP DP  RH WIND       PRES   REMARKS
MANISTIQUE     CLOUDY    10   2  70 W3        29.81F
6HR MIN TEMP:  10; 6HR MAX TEMP:  12;

ESCANABA       CLOUDY     7   2  80 CALM      29.83F
6HR MIN TEMP:   5; 6HR MAX TEMP:   9;

MENOMINEE      CLOUDY    11   6  81 CALM      29.85F
6HR MIN TEMP:   5; 6HR MAX TEMP:  11;

$$
MIZ001>003-009>011-084-130700-
WESTERN UPPER MICHIGAN

CITY           SKY/WX    TMP DP  RH WIND       PRES   REMARKS
IRON MOUNTAIN  CLOUDY    11   4  73 CALM      29.76F
6HR MIN TEMP:   8; 6HR MAX TEMP:  12;

HOUGHTON       CLOUDY    10   5  80 CALM      29.73F
6HR MIN TEMP:   8; 6HR MAX TEMP:  11; 6HR PCP: TRACE;

COPPER HARBOR    N/A     13   7  77 SW3       29.79F
6HR MIN TEMP:  12; 6HR MAX TEMP:  16;

IRONWOOD       FLURRIES  11   6  81 SE7       29.68F WCI   0
6HR MIN TEMP:  10; 6HR MAX TEMP:  11;

$$

ABBREVIATIONS USED IN REMARKS
   TC - TEMPERATURE IN CELSIUS
  WCI - WIND CHILL INDEX
   HX - HEAT INDEX
  VSB - VISIBILITY





USA.gov is the U.S. government's official web portal to all federal, state and local government web resources and services.